[[{"header":{"parameterUnit":"m.s-1","parameterCategory":1,"la1":30.2991,"la2":30.254,"lo1":-89.0895,"lo2":-89.0444,"dy":0.0017,"dx":0.0017,"nx":28,"ny":28,"refTime":"2025-12-10T09:00:00:Z","depth":0,"parameterNumber":2,"parameterNumberName":"U-component_of_WINDS"},"data":[0,0,0,0,0,0,0,0,0,0,0,0,0,0,0,0,0,0,0,0,0,0,0,0,0,0,0,0,0,0,0,0,0,0,0,0,0,0,0,0,0,0,0,0,0,0,0,0,0,0,0,0,0,0,0,0,0,0,-0.7003,-0.7003,0,-0.7052,-0.7053,-0.7053,-0.7017,-0.7016,-0.7014,-0.7013,-0.7066,-0.7068,-0.7071,0,0,0,0,0,0,0,0,0,0,0,0,0,-0.6878,-0.6881,-0.7003,-0.7003,-0.7004,-0.7052,-0.7053,-0.7053,-0.7018,-0.7016,-0.7014,-0.7012,-0.7065,-0.7068,-0.7072,0,0,0,0,0,0,0,0,0,0,0,0,0,-0.6931,-0.6882,-0.7002,-0.6992,-0.6991,-0.7052,-0.7053,-0.7053,-0.7018,-0.7016,-0.7013,-0.7011,-0.7064,-0.7068,-0.7072,-0.7147,0,0,-0.7085,-0.7087,0,0,0,0,0,0,0,0,-0.6928,-0.6935,-0.6993,-0.6993,-0.6992,-0.7026,-0.7028,-0.7085,-0.7019,-0.7008,-0.7013,-0.701,-0.7054,-0.7059,-0.7074,-0.7149,-0.7151,-0.7086,-0.7088,-0.709,-0.7091,0,0,0,0,0,0,0,-0.6924,-0.6933,-0.7022,-0.6994,-0.6993,-0.6985,-0.699,-0.7039,-0.7044,-0.7009,-0.7006,-0.7012,-0.7054,-0.707,-0.7075,-0.7152,-0.7086,-0.7089,-0.7092,-0.7094,-0.7291,-0.7293,0,0,0,0,0,0,-0.6921,-0.693,-0.7021,-0.7024,-0.6953,-0.6989,-0.6994,-0.7018,-0.7043,-0.7045,-0.7014,-0.701,-0.7064,-0.707,-0.7077,-0.7166,-0.709,-0.7094,-0.7097,-0.7288,-0.7291,-0.7294,0,0,0,0,0,0,-0.6919,-0.693,-0.7019,-0.6976,-0.6987,-0.6994,-0.702,-0.702,-0.7036,-0.7048,-0.7049,-0.703,-0.7062,-0.7071,-0.7129,-0.7168,-0.7096,-0.71,-0.7285,-0.7289,-0.7293,-0.7346,0,0,0,0,0,0,-0.6915,-0.6929,-0.6957,-0.6977,-0.6989,-0.707,-0.7022,-0.7022,-0.7043,-0.7039,-0.7062,-0.7064,-0.7061,-0.7123,-0.7134,-0.7172,-0.7104,-0.7282,-0.7287,-0.7291,-0.7341,-0.7351,-0.736,0,0,0,0,0,-0.6911,-0.6971,-0.6959,-0.697,-0.7025,-0.7073,-0.708,-0.7074,-0.7046,-0.7075,-0.7082,-0.7063,-0.7161,-0.7129,-0.7141,-0.7182,-0.7279,-0.7285,-0.7291,-0.7337,-0.7349,-0.736,0,0,0,0,0,0,-0.6957,-0.6973,-0.696,-0.7028,-0.7049,-0.7066,-0.7103,-0.7088,-0.7118,-0.7112,-0.7104,-0.711,-0.7172,-0.7182,-0.7146,-0.7255,-0.7216,-0.7224,-0.7247,-0.7259,-0.7268,-0.7265,-0.7107,0,0,0,0,0,-0.6974,-0.7011,-0.7024,-0.7083,-0.7094,-0.7096,-0.7117,-0.711,-0.7132,-0.7141,-0.7153,-0.7175,-0.7211,-0.7235,-0.7268,-0.7341,-0.7346,-0.7375,-0.7384,-0.7392,-0.7401,-0.744,-0.7453,-0.7314,-0.7313,-0.7313,0,0,-0.7012,-0.7026,-0.705,-0.7092,-0.7108,-0.7147,-0.7104,-0.7147,-0.7176,-0.7148,-0.7205,-0.7213,-0.7238,-0.7304,-0.7334,-0.7315,-0.744,-0.74,-0.7406,-0.741,-0.7448,-0.7461,-0.7473,-0.7318,-0.7317,-0.7316,0,0,-0.7101,-0.7114,-0.7165,-0.7181,-0.7204,-0.7205,-0.7217,-0.7236,-0.7241,-0.7297,-0.7277,-0.7311,-0.7373,-0.7391,-0.7408,-0.7502,-0.7486,-0.7513,-0.7564,-0.7603,-0.7614,-0.7624,-0.7659,-0.7671,-0.752,-0.7521,-0.7521,0,-0.7145,-0.7203,-0.7193,-0.7238,-0.7257,-0.7231,-0.7283,-0.7299,-0.7333,-0.7347,-0.7324,-0.7401,-0.7415,-0.7486,-0.7508,-0.7523,-0.7537,-0.7512,-0.7613,-0.7623,-0.7632,-0.7665,-0.7678,-0.7524,-0.7524,-0.7523,-0.7523,0,-0.7256,-0.7296,-0.7334,-0.7367,-0.739,-0.7438,-0.7436,-0.7461,-0.7451,-0.7455,-0.7512,-0.7528,-0.7565,-0.758,-0.7572,-0.765,-0.7637,-0.7614,-0.7575,-0.7649,-0.768,-0.7692,-0.7529,-0.7527,-0.7526,-0.7526,0,0,-0.7378,-0.7403,-0.7417,-0.7431,-0.7454,-0.7485,-0.7532,-0.7566,-0.7588,-0.7611,-0.7651,-0.7703,-0.7681,-0.7701,-0.7694,-0.7728,-0.7802,-0.77,-0.7701,-0.772,-0.7889,-0.7908,-0.7923,-0.779,-0.7793,-0.7794,-0.7888,0,-0.7469,-0.755,-0.7542,-0.7619,-0.7656,-0.7631,-0.7671,-0.769,-0.7694,-0.7726,-0.773,-0.7768,-0.7736,-0.7748,-0.778,-0.7786,-0.7836,-0.7779,-0.7828,-0.783,-0.7825,-0.7939,-0.7959,-0.8047,-0.79,-0.7902,-0.7903,0,-0.7587,-0.7614,-0.7694,-0.7711,-0.7727,-0.7763,-0.7794,-0.7825,-0.7845,-0.7845,-0.7867,-0.7854,-0.7901,-0.7858,-0.7923,-0.7885,-0.7904,-0.791,-0.7913,-0.792,-0.7873,-0.795,-0.8075,-0.8089,-0.7922,-0.792,-0.7919,0,-0.767,-0.7726,-0.7781,-0.7794,-0.7815,-0.7841,-0.7851,-0.7869,-0.789,-0.7916,-0.793,-0.7962,-0.798,-0.8005,-0.8001,-0.7971,-0.8068,-0.8025,-0.8071,-0.8071,-0.8095,-0.8094,-0.8226,-0.8103,-0.8103,-0.8103,-0.8103,0,-0.7774,-0.7825,-0.7819,-0.7853,-0.7909,-0.7899,-0.7954,-0.7961,-0.7977,-0.8012,-0.7992,-0.8026,-0.8018,-0.8051,-0.8048,-0.8103,-0.8111,-0.8113,-0.8112,-0.8117,-0.8117,-0.8131,-0.8126,-0.8106,-0.8106,-0.8105,-0.8104,0,-0.7878,-0.7875,-0.7934,-0.7948,-0.7953,-0.7994,-0.8006,-0.8038,-0.8039,-0.8084,-0.8094,-0.8097,-0.8135,-0.8133,-0.8176,-0.8174,-0.8243,-0.8233,-0.8236,-0.8235,-0.8281,-0.8278,-0.8429,-0.8449,-0.8311,-0.8313,-0.8314,0,-0.7946,-0.7984,-0.8002,-0.8023,-0.8035,-0.807,-0.8091,-0.8082,-0.8105,-0.813,-0.816,-0.8196,-0.8225,-0.8287,-0.8293,-0.8326,-0.8319,-0.837,-0.8324,-0.8327,-0.8322,-0.8321,-0.8325,-0.838,-0.8381,-0.8382,-0.8383,0,-0.8067,-0.8064,-0.8095,-0.8125,-0.815,-0.8174,-0.8195,-0.8214,-0.8207,-0.8234,-0.8272,-0.8294,-0.8338,-0.8375,-0.8406,-0.8416,-0.84,-0.8397,-0.841,-0.8416,-0.8416,-0.8418,-0.8263,-0.8395,-0.8393,-0.8393,-0.8392,-0.8392,-0.8156,-0.8189,-0.8207,-0.8242,-0.8256,-0.8276,-0.8308,-0.8312,-0.8344,-0.8378,-0.837,-0.8414,-0.8432,-0.8472,-0.8485,-0.852,-0.8502,-0.852,-0.8525,-0.853,-0.8536,-0.8409,-0.8525,-0.8525,-0.8524,-0.8524,-0.8524,0,-0.8278,-0.8288,-0.832,-0.835,-0.8377,-0.8356,-0.8379,-0.8404,-0.8442,-0.846,-0.8488,-0.8532,-0.8567,-0.8575,-0.8608,-0.8634,-0.8627,-0.8644,-0.8643,-0.8646,-0.8549,-0.8536,-0.8649,-0.8649,-0.8649,-0.8649,-0.8649,-0.8649,-0.8345,-0.84,-0.8398,-0.846,-0.8469,-0.8511,-0.8526,-0.8544,-0.8559,-0.8609,-0.8637,-0.8641,-0.8656,-0.869,-0.8721,-0.8722,-0.8736,-0.8756,-0.8755,-0.8665,-0.8653,-0.8641,-0.8628,-0.8759,-0.8759,-0.8849,-0.8849,-0.885]},{"header":{"parameterUnit":"m.s-1","parameterCategory":1,"la1":30.2991,"la2":30.254,"lo1":-89.0895,"lo2":-89.0444,"dy":0.0017,"dx":0.0017,"nx":28,"ny":28,"refTime":"2025-12-10T09:00:00:Z","depth":0,"parameterNumber":3,"parameterNumberName":"V-component_of_WINDS"},"data":[0,0,0,0,0,0,0,0,0,0,0,0,0,0,0,0,0,0,0,0,0,0,0,0,0,0,0,0,0,0,0,0,0,0,0,0,0,0,0,0,0,0,0,0,0,0,0,0,0,0,0,0,0,0,0,0,0,0,-5.1968,-5.1969,0,-5.2067,-5.2068,-5.2069,-5.1977,-5.1973,-5.1969,-5.1966,-5.2064,-5.2069,-5.2075,0,0,0,0,0,0,0,0,0,0,0,0,0,-5.1696,-5.1702,-5.1968,-5.1969,-5.197,-5.2066,-5.2068,-5.2069,-5.1977,-5.1973,-5.1968,-5.1964,-5.2062,-5.2069,-5.2076,0,0,0,0,0,0,0,0,0,0,0,0,0,-5.1807,-5.1704,-5.1968,-5.1936,-5.1934,-5.2066,-5.2068,-5.2069,-5.1978,-5.1973,-5.1967,-5.1962,-5.2059,-5.2068,-5.2077,-5.2244,0,0,-5.2105,-5.2109,0,0,0,0,0,0,0,0,-5.18,-5.1817,-5.194,-5.1939,-5.1937,-5.2004,-5.2008,-5.2128,-5.198,-5.1962,-5.1966,-5.1959,-5.2048,-5.2058,-5.2088,-5.2248,-5.2253,-5.2106,-5.2111,-5.2115,-5.2118,0,0,0,0,0,0,0,-5.1793,-5.1812,-5.2007,-5.1941,-5.194,-5.1916,-5.1926,-5.203,-5.2034,-5.1963,-5.1956,-5.1969,-5.2046,-5.208,-5.209,-5.2254,-5.2105,-5.2113,-5.2119,-5.2122,-5.2556,-5.2561,0,0,0,0,0,0,-5.1789,-5.1806,-5.2004,-5.201,-5.1854,-5.1925,-5.1936,-5.1988,-5.2033,-5.2035,-5.1974,-5.1965,-5.2067,-5.2079,-5.2093,-5.2291,-5.2115,-5.2123,-5.2129,-5.255,-5.2557,-5.2564,0,0,0,0,0,0,-5.1784,-5.1808,-5.2,-5.1906,-5.1929,-5.1936,-5.1995,-5.1993,-5.2026,-5.2042,-5.2042,-5.2008,-5.2063,-5.208,-5.2207,-5.2293,-5.2127,-5.2136,-5.2543,-5.2552,-5.256,-5.269,0,0,0,0,0,0,-5.1776,-5.1806,-5.1871,-5.1908,-5.1934,-5.2114,-5.2,-5.1999,-5.2042,-5.2031,-5.2073,-5.2075,-5.206,-5.2194,-5.2216,-5.2303,-5.2143,-5.2535,-5.2547,-5.2557,-5.2678,-5.2702,-5.2723,0,0,0,0,0,-5.1767,-5.1902,-5.1874,-5.1899,-5.2015,-5.2119,-5.2134,-5.2115,-5.205,-5.2114,-5.2124,-5.2074,-5.228,-5.2208,-5.2232,-5.2323,-5.2529,-5.2543,-5.2557,-5.2668,-5.2697,-5.2723,0,0,0,0,0,0,-5.1873,-5.1907,-5.1876,-5.2028,-5.2072,-5.2103,-5.2184,-5.2147,-5.2209,-5.2195,-5.2168,-5.2178,-5.2313,-5.233,-5.2249,-5.2486,-5.2394,-5.2413,-5.247,-5.2499,-5.2521,-5.2514,-5.215,0,0,0,0,0,-5.1915,-5.1998,-5.2022,-5.2153,-5.2177,-5.2177,-5.2221,-5.2203,-5.2246,-5.2264,-5.2283,-5.2326,-5.2401,-5.245,-5.252,-5.268,-5.2687,-5.2754,-5.2776,-5.2795,-5.2812,-5.2897,-5.2927,-5.2608,-5.2608,-5.2608,0,0,-5.2001,-5.2029,-5.2083,-5.2176,-5.2207,-5.2293,-5.2193,-5.2287,-5.235,-5.2278,-5.24,-5.2415,-5.2461,-5.2606,-5.267,-5.2624,-5.2901,-5.2812,-5.2827,-5.2834,-5.2914,-5.2945,-5.2971,-5.2618,-5.2616,-5.2615,0,0,-5.2201,-5.2231,-5.2345,-5.2379,-5.2428,-5.2427,-5.2454,-5.2492,-5.25,-5.2622,-5.2569,-5.2642,-5.2772,-5.2807,-5.2842,-5.3055,-5.3011,-5.3078,-5.3197,-5.328,-5.3306,-5.3328,-5.3404,-5.3432,-5.3095,-5.3096,-5.3096,0,-5.2302,-5.243,-5.2407,-5.2506,-5.2548,-5.2488,-5.2601,-5.2635,-5.2704,-5.2734,-5.2682,-5.2843,-5.2869,-5.3021,-5.3073,-5.3103,-5.3133,-5.3074,-5.3304,-5.3326,-5.3346,-5.3419,-5.3448,-5.3103,-5.3103,-5.3102,-5.3101,0,-5.2551,-5.264,-5.2725,-5.2795,-5.2846,-5.2952,-5.2945,-5.3,-5.2976,-5.2981,-5.3105,-5.3135,-5.321,-5.3244,-5.3222,-5.3393,-5.3363,-5.3308,-5.3215,-5.3385,-5.3453,-5.348,-5.3115,-5.3112,-5.311,-5.3108,0,0,-5.2822,-5.2878,-5.291,-5.2941,-5.299,-5.3059,-5.3161,-5.3235,-5.3282,-5.3332,-5.3417,-5.3527,-5.3477,-5.3516,-5.3498,-5.3571,-5.3739,-5.3507,-5.3507,-5.3549,-5.3929,-5.397,-5.4003,-5.371,-5.3715,-5.3719,-5.3925,0,-5.3024,-5.3204,-5.3187,-5.3357,-5.3439,-5.3383,-5.3472,-5.3512,-5.3518,-5.3588,-5.3594,-5.3673,-5.36,-5.3624,-5.3694,-5.3704,-5.3815,-5.3688,-5.3788,-5.3792,-5.3779,-5.4038,-5.4083,-5.4276,-5.3951,-5.3956,-5.3959,0,-5.3285,-5.3345,-5.3524,-5.3562,-5.3595,-5.3676,-5.3743,-5.381,-5.3853,-5.3853,-5.3897,-5.3866,-5.3968,-5.3872,-5.4012,-5.3927,-5.3966,-5.3977,-5.3984,-5.3993,-5.3886,-5.4055,-5.4337,-5.4366,-5.4,-5.3997,-5.3994,0,-5.3466,-5.3591,-5.3714,-5.3742,-5.3789,-5.3847,-5.3869,-5.3907,-5.3953,-5.401,-5.4039,-5.4107,-5.4145,-5.4198,-5.4185,-5.4116,-5.4328,-5.4231,-5.433,-5.4331,-5.4377,-5.4375,-5.467,-5.4402,-5.4402,-5.4401,-5.4401,0,-5.3694,-5.3806,-5.3796,-5.3872,-5.3995,-5.3974,-5.4096,-5.411,-5.4145,-5.4221,-5.4176,-5.4249,-5.4227,-5.4299,-5.4289,-5.4406,-5.4423,-5.4425,-5.4422,-5.443,-5.443,-5.4456,-5.4442,-5.4409,-5.4407,-5.4406,-5.4404,0,-5.3917,-5.3915,-5.4046,-5.4079,-5.409,-5.418,-5.4208,-5.4279,-5.4281,-5.4379,-5.4401,-5.4405,-5.4487,-5.4479,-5.4571,-5.4564,-5.471,-5.469,-5.4696,-5.4692,-5.4791,-5.4782,-5.5114,-5.5157,-5.4861,-5.4864,-5.4866,0,-5.4063,-5.4148,-5.4191,-5.424,-5.4266,-5.4345,-5.4392,-5.4373,-5.4423,-5.4479,-5.4544,-5.4622,-5.4683,-5.4816,-5.4827,-5.4896,-5.4878,-5.4989,-5.4888,-5.4894,-5.488,-5.4876,-5.4884,-5.501,-5.5013,-5.5016,-5.5018,0,-5.4323,-5.4318,-5.4387,-5.4457,-5.4514,-5.4568,-5.4616,-5.4659,-5.4645,-5.4703,-5.4787,-5.4835,-5.4929,-5.5007,-5.5073,-5.5094,-5.5054,-5.505,-5.5076,-5.5086,-5.5087,-5.5088,-5.4751,-5.5042,-5.504,-5.5038,-5.5037,-5.5036,-5.4512,-5.4585,-5.4627,-5.4706,-5.4741,-5.4788,-5.4856,-5.4868,-5.4938,-5.5014,-5.4998,-5.5093,-5.5133,-5.5218,-5.5245,-5.5318,-5.5278,-5.5316,-5.5326,-5.5336,-5.5348,-5.5075,-5.533,-5.5329,-5.5328,-5.5328,-5.5327,0,-5.4771,-5.4795,-5.4868,-5.4938,-5.5,-5.4957,-5.5009,-5.5063,-5.5148,-5.5189,-5.5251,-5.5347,-5.5422,-5.5439,-5.551,-5.5565,-5.5549,-5.5585,-5.5581,-5.5586,-5.538,-5.535,-5.5597,-5.5597,-5.5597,-5.5597,-5.5597,-5.5597,-5.4912,-5.5034,-5.5033,-5.5171,-5.5194,-5.5287,-5.532,-5.5363,-5.5396,-5.5506,-5.5569,-5.5579,-5.561,-5.5684,-5.5751,-5.5753,-5.5782,-5.5826,-5.5821,-5.5628,-5.5601,-5.5575,-5.5547,-5.5832,-5.5832,-5.6022,-5.6024,-5.6025]}]]